Skip Page Navigation
NASA JPL Caltech
NASA Logo - Jet Propulsion Laboratory + View the NASA Portal
+ Center for Near-Earth Object Studies
JPL Home Earth Solar System Stars & Galaxies Technology
JPL Solar System Dynamics
BODIES ORBITS EPHEMERIDES TOOLS PHYSICAL DATA DISCOVERY FAQ SITE MAP
IMPORTANT: The SSD Announcement email list is now available. Major changes are coming in the near future, including possible hostname and/or URL changes. To be notified of such changes, subscribe to this email list.

Please visit this page for more details.


JPL Small-Body Database Browser
Search: [ help ]  
359613 (2011 BH153)
Classification: Main-belt Asteroid          SPK-ID: 2359613
Ephemeris | Orbit Diagram | Orbital Elements | Mission Design | Physical Parameters | Discovery Circumstances ]

[ hide orbit diagram ]

For accurate long-term ephemerides, please instead use our Horizons system.This orbit viewer was implemented using two-body methods, and hence should not be used for determining accurate long-term trajectories (over several years or decades) or planetary encounter circumstances.


[ revert to old Java-based viewer ]

Orbital Elements at Epoch 2458600.5 (2019-Apr-27.0) TDB
Reference: JPL 12 (heliocentric ecliptic J2000)
 Element Value Uncertainty (1-sigma)   Units 
e .05935276201371587 1.38e-07  
a 3.097763274082999 7.6993e-08 au
q 2.913902467701521 4.7038e-07 au
i 9.989847665917154 1.191e-05 deg
node 5.193202915374131 4.1257e-05 deg
peri 354.1392694317813 7.5659e-05 deg
M 231.6401790650701 6.5625e-05 deg
tp 2459310.563793980156
(2021-Apr-06.06379398)
0.00037618 TDB
period 1991.456235845331
5.45
7.4245e-05
2.033e-07
d
yr
n .1807722376822344 6.7395e-09 deg/d
Q 3.281624080464476 8.1563e-08 au
  Orbit Determination Parameters
   # obs. used (total)      136  
   data-arc span      6285 days (17.21 yr)  
   first obs. used      2002-03-11  
   last obs. used      2019-05-26  
   planetary ephem.      DE431  
   SB-pert. ephem.      SB431-N16  
   condition code      0  
   norm. resid. RMS      .64268  
   source      ORB  
   producer      Otto Matic  
   solution date      2019-Sep-24 06:44:53  

Additional Information
 Earth MOID = 1.90986 au 
 Jupiter MOID = 2.04444 au 
 T_jup = 3.197 
[ show covariance matrix ]

Ephemeris | Orbit Diagram | Orbital Elements | Mission Design | Physical Parameters | Discovery Circumstances ]

Physical Parameter Table
Parameter Symbol Value Units Sigma Reference Notes
absolute magnitude H 16.0   n/a MPO437519  

359613 (2011 BH153)          Discovered 2007-Feb-17 by Spacewatch at Kitt Peak
Reference: 20130327/Numbers.arcLast Updated: 2013-03-29
Ephemeris | Orbit Diagram | Orbital Elements | Mission Design | Physical Parameters | Discovery Circumstances ]
ABOUT SSD CREDITS/AWARDS PRIVACY/COPYRIGHT GLOSSARY LINKS
FirstGov 2019-Dec-06 23:58 UT
(server date/time)  
NASA Home Page
Site Manager:   Ryan S. Park
Webmaster  Alan B. Chamberlin